Weather History for Aberdeen / Amory, MS

Change the Weather History Date:

Wednesday, January 23, 2013

  Actual Average (KCBM) Record (KCBM)
Temperature  
Mean Temperature 43 °F -  
Max Temperature 53 °F 53 °F 77 °F (2002)
Min Temperature 33 °F 33 °F 17 °F (2003)
Degree Days  
Heating Degree Days 22    
Moisture  
Dew Point 39 °F    
Average Humidity 87    
Maximum Humidity 100    
Minimum Humidity 76    
Precipitation  
Precipitation 0.00 in - - ()
Sea Level Pressure  
Sea Level Pressure 30.31 in    
Wind  
Wind Speed 1 mph (South)    
Max Wind Speed 9 mph    
Max Gust Speed -    
Visibility 9 miles    
Events      
Averages and records for this station are not official NWS values.
T = Trace of Precipitation, MM = Missing Value Source: NWS Daily Summary

Daily Weather History Graph

Daily Weather History Graph

Search for Another Location

Airport:

Trip Planner

Search our weather history database for the weather conditions in past years. The results will help you decide how hot, cold, wet, or windy it might be!

Date:

Astronomy

Jan. 23, 2013 Rise Set
Actual Time 6:55 AM CST 5:16 PM CST
Civil Twilight 6:29 AM CST 5:42 PM CST
Nautical Twilight 5:59 AM CST 6:13 PM CST
Astronomical Twilight 5:29 AM CST 6:42 PM CST
Moon 2:28 PM CST (1/23) 4:05 AM CST (1/23)
Length of Visible Light 11h 13m
Length of Day
10h 20m
Waxing Gibbous, 89% of the Moon is Illuminated
Jan 23
Waxing Gibbous
Jan 26
Full
Feb 3
Last Quarter
Feb 10
New
Feb 17
First Quarter

Hourly Weather History & Observations

Time (CST) Temp. Windchill Dew Point Humidity Pressure Visibility Wind Dir Wind Speed Gust Speed Precip Events Conditions
12:15 AM 37.4 °F - 35.6 °F 93% 30.36 in 10.0 mi Calm Calm - N/A   Overcast
12:35 AM 37.4 °F - 35.6 °F 93% 30.36 in 10.0 mi Calm Calm - N/A   Overcast
12:55 AM 37.4 °F - 35.6 °F 93% 30.36 in 10.0 mi Calm Calm - N/A   Mostly Cloudy
1:15 AM 35.6 °F - 35.6 °F 100% 30.36 in 10.0 mi North - - N/A   Mostly Cloudy
1:35 AM 35.6 °F - 33.8 °F 93% 30.36 in 10.0 mi Calm Calm - N/A   Overcast
1:55 AM 37.4 °F - 35.6 °F 93% 30.36 in 10.0 mi Calm Calm - N/A   Overcast
2:15 AM 37.4 °F - 35.6 °F 93% 30.36 in 10.0 mi Calm Calm - N/A   Overcast
2:35 AM 37.4 °F - 35.6 °F 93% 30.36 in 10.0 mi Calm Calm - N/A   Overcast
2:55 AM 37.4 °F - 35.6 °F 93% 30.36 in 10.0 mi Calm Calm - N/A   Mostly Cloudy
3:15 AM 37.4 °F - 35.6 °F 93% 30.36 in 10.0 mi Calm Calm - N/A   Mostly Cloudy
3:35 AM 37.4 °F - 35.6 °F 93% 30.36 in 10.0 mi Calm Calm - N/A   Overcast
4:15 AM 39.2 °F - 35.6 °F 87% 30.36 in 10.0 mi Calm Calm - N/A   Mostly Cloudy
4:35 AM 37.4 °F - 35.6 °F 93% 30.37 in 10.0 mi Calm Calm - N/A   Mostly Cloudy
5:15 AM 37.4 °F - 35.6 °F 93% 30.36 in 10.0 mi Calm Calm - N/A   Overcast
5:35 AM 37.4 °F - 35.6 °F 93% 30.37 in 10.0 mi Calm Calm - N/A   Overcast
5:55 AM 39.2 °F - 35.6 °F 87% 30.37 in 10.0 mi Calm Calm - N/A   Overcast
6:15 AM 37.4 °F - 35.6 °F 93% 30.37 in 10.0 mi Calm Calm - N/A   Overcast
6:35 AM 37.4 °F - 33.8 °F 87% 30.38 in 10.0 mi Calm Calm - N/A   Mostly Cloudy
6:55 AM 35.6 °F - 33.8 °F 93% 30.38 in 10.0 mi Calm Calm - N/A   Overcast
7:15 AM 35.6 °F - 33.8 °F 93% 30.38 in 9.0 mi Calm Calm - N/A   Scattered Clouds
7:35 AM 33.8 °F - 32.0 °F 93% 30.38 in 8.0 mi Calm Calm - N/A   Scattered Clouds
7:55 AM 37.4 °F - 35.6 °F 93% 30.37 in 8.0 mi Calm Calm - N/A   Mostly Cloudy
8:15 AM 39.2 °F - 37.4 °F 93% 30.38 in 9.0 mi Calm Calm - N/A   Overcast
8:35 AM 39.2 °F 37.0 °F 37.4 °F 93% 30.38 in 9.0 mi South 3.5 mph - N/A   Mostly Cloudy
8:55 AM 41.0 °F 39.0 °F 37.4 °F 87% 30.39 in 9.0 mi SSE 3.5 mph - N/A   Mostly Cloudy
9:15 AM 42.8 °F 39.3 °F 37.4 °F 81% 30.39 in 9.0 mi South 5.8 mph - N/A   Overcast
9:35 AM 42.8 °F 40.1 °F 39.2 °F 87% 30.39 in 9.0 mi South 4.6 mph - N/A   Mostly Cloudy
9:55 AM 44.6 °F 40.7 °F 39.2 °F 81% 30.39 in 8.0 mi South 6.9 mph - N/A   Mostly Cloudy
10:15 AM 46.4 °F 42.9 °F 41.0 °F 81% 30.39 in 9.0 mi South 6.9 mph - N/A   Overcast
10:55 AM 50.0 °F - 42.8 °F 76% 30.38 in 9.0 mi South 6.9 mph - N/A   Mostly Cloudy
11:15 AM 51.8 °F - 44.6 °F 76% 30.37 in 10.0 mi South 6.9 mph - N/A   Mostly Cloudy
11:35 AM 50.0 °F - 42.8 °F 76% 30.35 in 8.0 mi SSW 5.8 mph - N/A   Overcast
11:55 AM 50.0 °F - 42.8 °F 76% 30.34 in 8.0 mi South 5.8 mph - N/A   Overcast
12:15 PM 48.2 °F - 42.8 °F 82% 30.32 in 9.0 mi South 5.8 mph - N/A   Overcast
12:35 PM 50.0 °F - 44.6 °F 82% 30.31 in 9.0 mi South 8.1 mph - N/A   Overcast
12:55 PM 48.2 °F - 42.8 °F 82% 30.30 in 9.0 mi South 8.1 mph - N/A   Overcast
1:15 PM 50.0 °F - 44.6 °F 82% 30.29 in 8.0 mi South 9.2 mph - N/A   Overcast
1:55 PM 50.0 °F - 44.6 °F 82% 30.27 in 9.0 mi South 5.8 mph - N/A   Overcast
2:15 PM 51.8 °F - 44.6 °F 76% 30.27 in 8.0 mi SSE 3.5 mph - N/A   Overcast
2:35 PM 51.8 °F - 44.6 °F 76% 30.27 in 9.0 mi South 5.8 mph - N/A   Overcast
2:55 PM 51.8 °F - 44.6 °F 76% 30.26 in 9.0 mi South 4.6 mph - N/A   Overcast
3:35 PM 53.6 °F - 46.4 °F 77% 30.25 in 8.0 mi SSE 5.8 mph - N/A   Partly Cloudy
3:55 PM 53.6 °F - 46.4 °F 77% 30.25 in 9.0 mi South 5.8 mph - N/A   Clear
4:15 PM 53.6 °F - 46.4 °F 77% 30.24 in 8.0 mi South 4.6 mph - N/A   Clear
4:35 PM 51.8 °F - 44.6 °F 76% 30.24 in 9.0 mi SSE 3.5 mph - N/A   Clear
4:55 PM 51.8 °F - 44.6 °F 76% 30.24 in 8.0 mi Calm Calm - N/A   Partly Cloudy
5:15 PM 48.2 °F - 42.8 °F 82% 30.24 in 8.0 mi Calm Calm - N/A   Clear
5:35 PM 44.6 °F - 39.2 °F 81% 30.24 in 8.0 mi Calm Calm - N/A   Clear
6:15 PM 42.8 °F - 39.2 °F 87% 30.25 in 10.0 mi Calm Calm - N/A   Partly Cloudy
6:55 PM 42.8 °F - 39.2 °F 87% 30.24 in 10.0 mi North - - N/A   Overcast
7:15 PM 42.8 °F - 39.2 °F 87% 30.24 in 10.0 mi Calm Calm - N/A   Mostly Cloudy
7:35 PM 41.0 °F - 37.4 °F 87% 30.23 in 10.0 mi Calm Calm - N/A   Scattered Clouds
7:55 PM 39.2 °F - 37.4 °F 93% 30.23 in 9.0 mi Calm Calm - N/A   Mostly Cloudy
8:15 PM 39.2 °F - 37.4 °F 93% 30.23 in 9.0 mi Calm Calm - N/A   Scattered Clouds
8:35 PM 39.2 °F - 37.4 °F 93% 30.22 in 8.0 mi Calm Calm - N/A   Clear
8:55 PM 39.2 °F - 37.4 °F 93% 30.23 in 8.0 mi Calm Calm - N/A   Clear
9:15 PM 37.4 °F - 35.6 °F 93% 30.23 in 9.0 mi North - - N/A   Scattered Clouds
9:35 PM 37.4 °F - 35.6 °F 93% 30.23 in 9.0 mi North - - N/A   Scattered Clouds
9:55 PM 39.2 °F - 37.4 °F 93% 30.23 in 9.0 mi North - - N/A   Scattered Clouds
10:15 PM 39.2 °F - 37.4 °F 93% 30.24 in 10.0 mi Calm Calm - N/A   Scattered Clouds
10:35 PM 39.2 °F - 37.4 °F 93% 30.23 in 9.0 mi Calm Calm - N/A   Scattered Clouds
10:55 PM 39.2 °F - 37.4 °F 93% 30.23 in 9.0 mi Calm Calm - N/A   Scattered Clouds
11:15 PM 39.2 °F - 37.4 °F 93% 30.23 in 8.0 mi Calm Calm - N/A   Mostly Cloudy
11:35 PM 41.0 °F - 39.2 °F 93% 30.23 in 8.0 mi Calm Calm - N/A   Mostly Cloudy
11:55 PM 42.8 °F - 39.2 °F 87% 30.23 in 8.0 mi Calm Calm - N/A   Mostly Cloudy